This is the latest recevied weather packets stored in our database for station/object RN1M-13. If no packets are shown the sender has not sent any weather packets the latest 10 day(s).
| Time | Temp. | Humidity | Pressure | Rain* | Wind** | Luminosity | Snow |
|---|---|---|---|---|---|---|---|
| 1777465172 | 5.56° C | 69% | 1021.1 hPa | - | - | - | - |
| 1777464272 | 5.56° C | 69% | 1021.1 hPa | - | - | - | - |
| 1777463372 | 5.56° C | 83% | 1021.1 hPa | - | - | - | - |
| 1777462472 | 5° C | 79% | 1021.1 hPa | - | - | - | - |
| 1777461572 | 5° C | 94% | 1021.1 hPa | - | - | - | - |
| 1777460674 | 5° C | 100% | 1020.9 hPa | - | - | - | - |
| 1777459778 | 5° C | 99% | 1020.8 hPa | - | - | - | - |
| 1777458878 | 5.56° C | 96% | 1020.8 hPa | - | - | - | - |
| 1777457978 | 5° C | 96% | 1020.6 hPa | - | - | - | - |
| 1777457078 | 5.56° C | 97% | 1020.6 hPa | - | - | - | - |
| 1777456178 | 5° C | 98% | 1020.4 hPa | - | - | - | - |
| 1777455321 | 5° C | 84% | 1020.4 hPa | - | - | - | - |
| 1777455278 | 5° C | 84% | 1020.4 hPa | - | - | - | - |
| 1777454378 | 5.56° C | 71% | 1020.3 hPa | - | - | - | - |
| 1777453478 | 5.56° C | 77% | 1020.1 hPa | - | - | - | - |
| 1777452578 | 5.56° C | 78% | 1020 hPa | - | - | - | - |
| 1777451678 | 5.56° C | 78% | 1019.9 hPa | - | - | - | - |
| 1777450778 | 6.11° C | 79% | 1019.9 hPa | - | - | - | - |
| 1777449880 | 5° C | 81% | 1019.9 hPa | - | - | - | - |
| 1777448984 | 5.56° C | 87% | 1019.8 hPa | - | - | - | - |
| 1777448084 | 5° C | 88% | 1019.7 hPa | - | - | - | - |
| 1777447184 | 5.56° C | 96% | 1019.8 hPa | - | - | - | - |
| 1777446284 | 5.56° C | 95% | 1019.6 hPa | - | - | - | - |
| 1777445384 | 5° C | 98% | 1019.8 hPa | - | - | - | - |
| 1777444484 | 5° C | 99% | 1019.7 hPa | - | - | - | - |
* Rain since midnight (hover to see other rain measurements)
** Current wind speed in m/s (hover to see current wind gust speed)